When you browse on this site, cookies collect data to enhance your experience and personalize the content and advertising you see.
Visit our Privacy Policy to learn more. By continuing to use the site, you agree to this use of cookies and data.
  • In Romania
  • List of Countries
  • For 7 days
  • Water Temperature
  • Weather Map
  • Weather Widgets
  • user-avatar
    Login

    Hourly Weather Cuilapa

    Today, 27 January, Monday

    Time Temperature Precipitation Wind Pressure Humidity
    00:00 +18°C° 0 mm 0 mps 686 mmHg 96%
    01:00 +18°C° 0 mm 0 mps 686 mmHg 95%
    02:00 +19°C° 0 mm 1 mps 686 mmHg 94%
    03:00 +19°C° 0 mm 1 mps 685 mmHg 94%
    04:00 +19°C° 0 mm 1 mps 685 mmHg 93%
    05:00 +19°C° 0 mm 1 mps 685 mmHg 92%
    06:00 +19°C° 0 mm 1 mps 686 mmHg 91%
    07:00 +22°C° 0 mm 1 mps 687 mmHg 82%
    08:00 +24°C° 0 mm 1 mps 688 mmHg 73%
    09:00 +26°C° 0 mm 1 mps 689 mmHg 64%
    10:00 +27°C° 0.2 mm 1 mps 688 mmHg 62%
    11:00 +28°C° 0.2 mm 2 mps 688 mmHg 60%
    12:00 +29°C° 0.2 mm 2 mps 688 mmHg 58%
    13:00 +28°C° 0.5 mm 2 mps 687 mmHg 61%
    14:00 +28°C° 0.5 mm 2 mps 686 mmHg 64%
    15:00 +27°C° 0.5 mm 2 mps 685 mmHg 67%
    16:00 +26°C° 0.4 mm 2 mps 685 mmHg 75%
    17:00 +24°C° 0.4 mm 1 mps 685 mmHg 83%
    18:00 +22°C° 0.4 mm 1 mps 685 mmHg 91%
    19:00 +22°C° 0.1 mm 1 mps 686 mmHg 92%
    20:00 +21°C° 0.1 mm 1 mps 686 mmHg 93%
    21:00 +19°C° 0.1 mm 0 mps 686 mmHg 95%
    22:00 +21°C° 0 mm 1 mps 686 mmHg 94%
    23:00 +20°C° 0 mm 1 mps 686 mmHg 94%

    Tomorrow, 28 January, Tuesday

    Time Temperature Precipitation Wind Pressure Humidity
    00:00 +20°C° 0 mm 1 mps 686 mmHg 93%
    01:00 +20°C° 0 mm 1 mps 686 mmHg 93%
    02:00 +20°C° 0 mm 1 mps 685 mmHg 92%
    03:00 +20°C° 0 mm 1 mps 685 mmHg 92%
    04:00 +20°C° 0 mm 1 mps 685 mmHg 92%
    05:00 +20°C° 0 mm 1 mps 685 mmHg 91%
    06:00 +20°C° 0 mm 1 mps 685 mmHg 91%
    07:00 +22°C° 0 mm 1 mps 686 mmHg 83%
    08:00 +24°C° 0 mm 1 mps 687 mmHg 75%
    09:00 +26°C° 0 mm 1 mps 687 mmHg 68%
    10:00 +27°C° 0.1 mm 2 mps 687 mmHg 63%
    11:00 +28°C° 0.1 mm 2 mps 687 mmHg 59%
    12:00 +29°C° 0.1 mm 3 mps 687 mmHg 55%
    13:00 +29°C° 0.2 mm 3 mps 686 mmHg 57%
    14:00 +28°C° 0.2 mm 3 mps 685 mmHg 60%
    15:00 +28°C° 0.2 mm 3 mps 685 mmHg 63%
    16:00 +26°C° 0.2 mm 2 mps 684 mmHg 72%
    17:00 +24°C° 0.2 mm 2 mps 684 mmHg 82%
    18:00 +22°C° 0.2 mm 1 mps 684 mmHg 92%
    19:00 +22°C° 0 mm 1 mps 685 mmHg 93%
    20:00 +20°C° 0 mm 0 mps 685 mmHg 95%
    21:00 +19°C° 0 mm 0 mps 686 mmHg 96%
    22:00 +19°C° 0 mm 0 mps 686 mmHg 96%
    23:00 +19°C° 0 mm 0 mps 686 mmHg 96%

    Day after tomorrow, 29 January, Wednesday

    Time Temperature Precipitation Wind Pressure Humidity
    00:00 +18°C° 0 mm 0 mps 686 mmHg 95%
    01:00 +18°C° 0 mm 0 mps 685 mmHg 94%
    02:00 +18°C° 0 mm 0 mps 685 mmHg 94%
    03:00 +19°C° 0 mm 1 mps 684 mmHg 93%
    04:00 +19°C° 0 mm 1 mps 684 mmHg 92%
    05:00 +19°C° 0 mm 1 mps 685 mmHg 90%
    06:00 +19°C° 0 mm 1 mps 685 mmHg 89%
    07:00 +22°C° 0 mm 1 mps 686 mmHg 79%
    08:00 +24°C° 0 mm 1 mps 687 mmHg 69%
    09:00 +25°C° 0 mm 0 mps 688 mmHg 59%
    10:00 +28°C° 0 mm 1 mps 688 mmHg 54%
    11:00 +30°C° 0 mm 2 mps 687 mmHg 48%
    12:00 +31°C° 0 mm 2 mps 687 mmHg 43%
    13:00 +30°C° 0.1 mm 2 mps 687 mmHg 48%
    14:00 +29°C° 0.1 mm 3 mps 686 mmHg 52%
    15:00 +29°C° 0.1 mm 3 mps 685 mmHg 56%
    16:00 +27°C° 0.3 mm 2 mps 685 mmHg 67%
    17:00 +25°C° 0.3 mm 1 mps 685 mmHg 78%
    18:00 +22°C° 0.3 mm 1 mps 684 mmHg 88%
    19:00 +22°C° 0.1 mm 1 mps 685 mmHg 89%
    20:00 +22°C° 0.1 mm 1 mps 685 mmHg 91%
    21:00 +21°C° 0.1 mm 1 mps 686 mmHg 92%
    22:00 +21°C° 0.4 mm 1 mps 686 mmHg 91%
    23:00 +21°C° 0.4 mm 1 mps 686 mmHg 90%

    30 January, Thursday

    Time Temperature Precipitation Wind Pressure Humidity
    00:00 +21°C° 0.4 mm 1 mps 686 mmHg 90%
    01:00 +20°C° 0 mm 1 mps 685 mmHg 90%
    02:00 +20°C° 0 mm 1 mps 685 mmHg 90%
    03:00 +20°C° 0 mm 1 mps 685 mmHg 90%
    04:00 +20°C° 0 mm 1 mps 685 mmHg 90%
    05:00 +20°C° 0 mm 1 mps 685 mmHg 90%
    06:00 +20°C° 0 mm 1 mps 685 mmHg 90%
    07:00 +22°C° 0 mm 1 mps 686 mmHg 82%
    08:00 +24°C° 0 mm 1 mps 687 mmHg 74%
    09:00 +26°C° 0 mm 1 mps 688 mmHg 66%
    10:00 +28°C° 0 mm 1 mps 688 mmHg 59%
    11:00 +29°C° 0 mm 1 mps 688 mmHg 52%
    12:00 +31°C° 0 mm 2 mps 687 mmHg 46%
    13:00 +30°C° 0 mm 2 mps 687 mmHg 48%
    14:00 +30°C° 0 mm 2 mps 686 mmHg 51%
    15:00 +29°C° 0 mm 3 mps 685 mmHg 53%
    16:00 +27°C° 0.2 mm 2 mps 685 mmHg 64%
    17:00 +25°C° 0.2 mm 2 mps 685 mmHg 76%
    18:00 +23°C° 0.2 mm 1 mps 684 mmHg 87%
    19:00 +22°C° 0 mm 1 mps 685 mmHg 90%
    20:00 +22°C° 0 mm 1 mps 685 mmHg 92%
    21:00 +19°C° 0 mm 0 mps 686 mmHg 95%
    22:00 +21°C° 0 mm 1 mps 686 mmHg 94%
    23:00 +21°C° 0 mm 1 mps 685 mmHg 93%

    31 January, Friday

    Time Temperature Precipitation Wind Pressure Humidity
    00:00 +21°C° 0 mm 1 mps 685 mmHg 92%
    01:00 +21°C° 0 mm 1 mps 685 mmHg 91%
    02:00 +20°C° 0 mm 1 mps 685 mmHg 91%
    03:00 +18°C° 0 mm 0 mps 684 mmHg 90%
    04:00 +18°C° 0 mm 0 mps 685 mmHg 90%
    05:00 +20°C° 0 mm 1 mps 685 mmHg 91%
    06:00 +20°C° 0 mm 1 mps 685 mmHg 91%
    07:00 +22°C° 0 mm 1 mps 686 mmHg 83%
    08:00 +24°C° 0 mm 1 mps 687 mmHg 75%
    09:00 +27°C° 0 mm 1 mps 688 mmHg 67%
    10:00 +28°C° 0 mm 1 mps 687 mmHg 63%
    11:00 +29°C° 0 mm 2 mps 687 mmHg 59%
    12:00 +29°C° 0 mm 2 mps 687 mmHg 56%
    13:00 +29°C° 0.8 mm 2 mps 686 mmHg 59%
    14:00 +28°C° 0.8 mm 2 mps 686 mmHg 63%
    15:00 +28°C° 0.8 mm 2 mps 685 mmHg 67%
    16:00 +26°C° 0.6 mm 2 mps 685 mmHg 74%
    17:00 +24°C° 0.6 mm 1 mps 685 mmHg 82%
    18:00 +23°C° 0.6 mm 1 mps 685 mmHg 89%
    19:00 +22°C° 0.2 mm 1 mps 685 mmHg 90%
    20:00 +22°C° 0.2 mm 1 mps 686 mmHg 91%
    21:00 +21°C° 0.2 mm 1 mps 686 mmHg 92%
    22:00 +21°C° 0 mm 1 mps 686 mmHg 90%
    23:00 +21°C° 0 mm 1 mps 686 mmHg 89%

    1 February, Saturday

    Time Temperature Precipitation Wind Pressure Humidity
    00:00 +21°C° 0 mm 1 mps 686 mmHg 87%
    01:00 +20°C° 0 mm 1 mps 686 mmHg 87%
    02:00 +20°C° 0 mm 1 mps 686 mmHg 87%
    03:00 +20°C° 0 mm 1 mps 686 mmHg 87%
    04:00 +20°C° 0 mm 1 mps 686 mmHg 87%
    05:00 +19°C° 0 mm 2 mps 686 mmHg 87%
    06:00 +19°C° 0 mm 2 mps 686 mmHg 88%
    07:00 +21°C° 0 mm 2 mps 687 mmHg 80%
    08:00 +24°C° 0 mm 2 mps 688 mmHg 73%
    09:00 +26°C° 0 mm 2 mps 689 mmHg 65%
    10:00 +28°C° 0 mm 2 mps 689 mmHg 57%
    11:00 +30°C° 0 mm 2 mps 689 mmHg 50%
    12:00 +32°C° 0 mm 2 mps 689 mmHg 42%
    13:00 +31°C° 0 mm 2 mps 688 mmHg 45%
    14:00 +30°C° 0 mm 2 mps 688 mmHg 48%
    15:00 +29°C° 0 mm 2 mps 687 mmHg 51%
    16:00 +28°C° 0.1 mm 2 mps 687 mmHg 58%
    17:00 +26°C° 0.1 mm 2 mps 687 mmHg 66%
    18:00 +24°C° 0.1 mm 2 mps 687 mmHg 73%
    19:00 +23°C° 0 mm 2 mps 688 mmHg 74%
    20:00 +21°C° 0 mm 2 mps 688 mmHg 76%
    21:00 +20°C° 0 mm 3 mps 688 mmHg 78%
    22:00 +20°C° 0 mm 3 mps 688 mmHg 77%
    23:00 +19°C° 0 mm 3 mps 688 mmHg 77%
    Show more